Regional Weather Roundup
Issued by NWS Tiyan, Guam

Home | Current Version | Previous Version | Text Only | Print | Product List | Glossary On
Versions: 1 2 3 4 5 6 7 8 9 10 11 12 13 14 15 16 17 18 19 20 21 22 23 24 25 26 27 28 29 30 31 32 33 34 35 36 37 38 39 40 41 42 43 44 45
000
ASGM40 PGUM 260512
RWRGUM
WEATHER ROUNDUP FOR THE MARIANAS
NATIONAL WEATHER SERVICE TIYAN GU
300 PM CHST FRI DEC 26 2014

GUZ001>004-260600-
MARIANA ISLANDS-

CITY           SKY/WX    TMP DP  RH WIND       PRES   REMARKS
GUAM AIRPORT   SUNNY     84  79  84 E16G22    29.79  HX  96
ANDERSEN AFB   PTSUNNY   81  75  83 E16       29.80S
ROTA AIRPORT   PTSUNNY   81  75  83 E17       29.82S
TINIAN AP      MOSUNNY   84  73  70 E16       29.81S HX  91
SAIPAN AP      CLOUDY    86  73  66 E15G23    29.82S HX  93

$$




USA.gov is the U.S. government's official web portal to all federal, state and local government web resources and services.